Regional Weather Roundup
Issued by NWS

Home | Current Version | Previous Version | Graphics & Text | Print | Product List | Glossary On
Versions: 1 2 3 4 5 6 7 8 9 10 11 12 13 14 15 16 17 18 19 20 21 22 23 24 25 26 27 28 29 30 31 32 33 34 35 36 37 38 39 40 41 42 43 44 45 46 47 48 49 50
093
ASUS43 KLMK 260002
RWRKY
KENTUCKY REGIONAL WEATHER ROUNDUP
NATIONAL WEATHER SERVICE LOUISVILLE KY
700 PM EST SAT FEB 25 2017

NOTE "FAIR" INDICATES FEW OR NO CLOUDS BELOW 12,000 FEET
WITH NO SIGNIFICANT WEATHER AND/OR OBSTRUCTIONS TO VISIBILITY.

KYZ001>023-026-027-061>063-070>075-260100-
WESTERN AND SOUTH CENTRAL KENTUCKY

CITY           SKY/WX    TMP DP  RH WIND       PRES   REMARKS
PADUCAH        CLEAR     40  14  34 NW5       30.10R
HENDERSON      CLEAR     36  16  44 W8        30.10R WCI  29
OWENSBORO      CLEAR     35  19  52 NW8       30.11R WCI  29
HOPKINSVILLE   CLEAR     39  18  43 NW7       30.09R WCI  34
BOWLING GREEN  CLEAR     40  18  41 NW3       30.09R
GLASGOW        NOT AVBL
$$

KYZ024-025-028>034-038-045-046-053-260100-
NORTH CENTRAL KENTUCKY

CITY           SKY/WX    TMP DP  RH WIND       PRES   REMARKS
LOUISVILLE/SDF PTCLDY    37  16  42 W13       30.05R WCI  29
LOUISVILLE/LOU MOCLDY    38  17  42 W13       30.05R WCI  30
FORT KNOX      CLEAR     34  18  53 W7        30.04R WCI  28
$$

KYZ035>037-039>044-047>052-055>060-089>105-260100-
NORTHEAST KENTUCKY

CITY           SKY/WX    TMP DP  RH WIND       PRES   REMARKS
LEXINGTON      CLOUDY    34  19  54 W7        30.03R WCI  28
COVINGTON      CLOUDY    31  18  58 W9        30.00R WCI  23
FRANKFORT      MOCLDY    35  18  49 CALM      30.02R
$$

KYZ054-064>069-076>088-106>120-260100-
SOUTHEAST KENTUCKY

CITY           SKY/WX    TMP DP  RH WIND       PRES   REMARKS
JACKSON        CLEAR     34  19  54 W10G17    29.99R WCI  26
LONDON         CLEAR     36  19  50 NW7       30.02R WCI  30
SOMERSET       CLEAR     34  19  55 W7        30.07R WCI  28
MIDDLESBORO    CLEAR     40  20  44 NW12      30.00R WCI  33
MONTICELLO     CLEAR     34  22  61 NW9       30.07R WCI  27
$$





USA.gov is the U.S. government's official web portal to all federal, state and local government web resources and services.